Printer-friendly version

IAU Minor Planet Center

Minor Planet Center

MPEC 2003-C32 : 2003 CG11

The following Minor Planet Electronic Circular may be linked-to from your own Web pages, but must not otherwise be redistributed electronically.


Read MPEC 2003-C31 Read MPEC 2003-C33


M.P.E.C. 2003-C32                                Issued 2003 Feb. 6, 03:44 UT

     The Minor Planet Electronic Circulars contain information on unusual
         minor planets and routine data on comets.  They are published
   on behalf of Commission 20 of the International Astronomical Union by the
          Minor Planet Center, Smithsonian Astrophysical Observatory,
                          Cambridge, MA 02138, U.S.A.

             Prepared using the Tamkin Foundation Computer Network

                              MPC@CFA.HARVARD.EDU
          URL http://cfa-www.harvard.edu/iau/mpc.html  ISSN 1523-6714

                                   2003 CG11

Observations:
     K03C11G* C2003 02 04.25921 09 55 46.21 +22 14 39.5          19.1 R      699
     K03C11G  C2003 02 04.27996 09 55 45.43 +22 16 01.7                      699
     K03C11G  C2003 02 04.30073 09 55 44.66 +22 17 24.2                      699
     K03C11G  C2003 02 04.32137 09 55 43.81 +22 18 45.9                      699
     K03C11G  C2003 02 05.37126 09 55 09.66 +23 30 18.4                      658
     K03C11G  C2003 02 05.37713 09 55 09.47 +23 30 42.5                      658
     K03C11G  C2003 02 05.38395 09 55 09.16 +23 31 12.0                      658
     K03C11G  C2003 02 05.39241 09 55 08.74 +23 31 47.3                      658
     K03C11G  C2003 02 05.40106 09 55 08.42 +23 32 23.3                      658
     K03C11G  C2003 02 06.00041 09 54 47.37 +24 15 29.9          18.2 R      J95
     K03C11G  C2003 02 06.00648 09 54 47.09 +24 15 56.1          19.0 R      J95
     K03C11G  C2003 02 06.01256 09 54 46.88 +24 16 23.3          18.9 R      J95

Observer details:
658 National Research Council of Canada.  Observers J. Stoesz, M. Milne.
    1.82-m Plaskett reflector + CCD.
699 Lowell Observatory-LONEOS.  Observer B. A. Skiff.  0.59-m LONEOS Schmidt
    + CCD.
J95 Great Shefford.  Observer P. Birtwhistle.  0.30-m f/6.3 Schmidt-Cassegrain
    + CCD.

Orbital elements:
2003 CG11                                                            PHA 0.023
Epoch 2003 Jan. 21.0 TT = JDT 2452660.5                 MPC
M 334.46552              (2000.0)            P               Q
n   0.28712756     Peri.  107.55196     -0.48592937     +0.83506175
a   2.2755487      Node   130.51466     -0.87360715     -0.45524676
e   0.6985975      Incl.   19.83527     -0.02613815     -0.30890495
P   3.43           H   20.2           G   0.15
From 12 observations 2003 Feb. 4-6.

Ephemeris:
2003 CG11                a,e,i = 2.28, 0.70, 20                  q = 0.6859
Date    TT    R. A. (2000) Decl.     Delta      r     Elong.  Phase     V
2003 01 31    09 57.35   +18 08.8    0.406    1.381   164.5    11.0    19.6
2003 02 02    09 56.73   +19 56.2    0.381    1.359   166.4     9.8    19.4
2003 02 04    09 55.88   +21 57.8    0.358    1.337   167.6     9.1    19.2
2003 02 06    09 54.79   +24 15.6    0.335    1.315   167.7     9.2    19.0
2003 02 08    09 53.39   +26 51.7    0.313    1.293   166.6    10.2    18.9
2003 02 10    09 51.65   +29 48.4    0.293    1.271   164.1    12.2    18.8
2003 02 12    09 49.48   +33 08.2    0.274    1.249   160.7    15.2    18.7
2003 02 14    09 46.78   +36 53.5    0.257    1.227   156.3    18.8    18.7
2003 02 16    09 43.37   +41 06.3    0.241    1.205   151.3    23.2    18.6
2003 02 18    09 38.98   +45 48.1    0.227    1.182   145.6    28.1    18.6
2003 02 20    09 33.18   +50 58.9    0.215    1.160   139.4    33.7    18.6
2003 02 22    09 25.19   +56 36.7    0.205    1.138   132.6    39.7    18.6
2003 02 24    09 13.50   +62 36.5    0.197    1.116   125.5    46.3    18.7
2003 02 26    08 54.88   +68 49.0    0.192    1.093   118.0    53.1    18.8
2003 02 28    08 21.0    +74 57.8    0.190    1.071   110.3    60.1    18.9
2003 03 02    07 06.5    +80 25.8    0.190    1.049   102.7    67.1    19.1
2003 03 04    04 13.2    +83 12.7    0.192    1.027    95.4    73.9    19.3
2003 03 06    01 17.9    +80 54.7    0.197    1.006    88.3    80.4    19.5
2003 03 08    00 02.0    +76 15.3    0.203    0.984    81.7    86.5    19.7
2003 03 10    23 27.8    +71 16.6    0.212    0.963    75.7    92.0    20.0
2003 03 12    23 09.08   +66 28.5    0.222    0.942    70.1    97.1    20.3
2003 03 14    22 57.52   +61 58.9    0.233    0.921    65.2   101.6    20.6
2003 03 16    22 49.78   +57 49.2    0.245    0.900    60.7   105.5    20.8
2003 03 18    22 44.35   +53 58.6    0.259    0.880    56.8   109.0    21.1
2003 03 20    22 40.48   +50 25.8    0.273    0.861    53.3   111.9    21.3
2003 03 22    22 37.73   +47 08.8    0.289    0.842    50.4   114.3    21.6

Brian G. Marsden             (C) Copyright 2003 MPC           M.P.E.C. 2003-C32

Read MPEC 2003-C31 Read MPEC 2003-C33


Our Web policy. Index to the CBAT/MPC/ICQ pages.


Valid HTML 4.01!